KS8S Weather Reports


time (UTC)temp
C
wind
direction
speed
KPH
gust
KPH
rain 1hr
cm
rain 24hr
cm
rain mn
cm
humidity
%
barometer
mb
20260508194523 12 223 6.4 8.0 0.00 0.30 0.15 80 1010.0
20260508193019 12 198 6.4 8.0 0.00 0.30 0.15 82 1010.2
20260508191524 12 223 8.0 14.5 0.00 0.30 0.15 83 1010.6
20260508190039 11 219 12.9 17.7 0.00 0.30 0.15 84 1010.9
20260508184529 11 211 12.9 19.3 0.00 0.30 0.15 85 1011.2
20260508183012 11 220 14.5 22.5 0.00 0.30 0.15 86 1011.2
20260508181521 11 213 14.5 22.5 0.03 0.30 0.15 86 1011.2
20260508180022 11 215 20.9 29.0 0.03 0.30 0.15 85 1011.4
20260508174520 12 227 19.3 22.5 0.03 0.30 0.15 82 1011.6
20260508173015 12 235 16.1 19.3 0.03 0.30 0.15 80 1011.6
20260508171512 13 234 17.7 25.7 0.00 0.28 0.13 75 1011.7
20260508170012 13 209 16.1 22.5 0.00 0.28 0.13 79 1011.6
20260508164534 12 202 16.1 27.4 0.03 0.28 0.13 79 1011.9
20260508163029 12 201 16.1 19.3 0.03 0.28 0.13 78 1012.1
20260508161521 11 213 11.3 22.5 0.03 0.28 0.13 82 1012.4
20260508160022 11 229 22.5 25.7 0.03 0.28 0.13 77 1012.6
20260508154518 11 248 16.1 22.5 0.00 0.25 0.10 77 1012.9
20260508153026 11 242 14.5 20.9 0.00 0.25 0.10 78 1012.6
20260508151511 11 259 17.7 24.1 0.00 0.25 0.10 75 1012.7
20260508150029 11 233 14.5 17.7 0.00 0.25 0.10 76 1012.6
20260508144528 12 261 16.1 24.1 0.00 0.25 0.10 74 1012.5
20260508143024 12 256 20.9 25.7 0.00 0.25 0.10 73 1012.6
20260508141521 12 246 20.9 25.7 0.00 0.25 0.10 74 1012.5
20260508140022 11 224 11.3 17.7 0.00 0.25 0.10 79 1012.5
20260508134515 11 247 14.5 19.3 0.00 0.25 0.10 77 1012.6
20260508133030 10 244 16.1 22.5 0.00 0.25 0.10 77 1012.8
20260508131525 10 244 11.3 17.7 0.00 0.25 0.10 77 1012.7
20260508130032 10 245 9.7 12.9 0.00 0.25 0.10 79 1012.7
20260508124521 9 259 11.3 16.1 0.00 0.25 0.10 79 1012.9
20260508123022 8 249 8.0 11.3 0.00 0.25 0.10 81 1012.7
20260508121521 8 246 6.4 8.0 0.00 0.25 0.10 82 1012.7
20260508120028 7 248 4.8 8.0 0.00 0.25 0.10 84 1012.6
20260508114526 7 233 8.0 12.9 0.00 0.25 0.10 83 1012.5
20260508113026 7 240 8.0 12.9 0.00 0.25 0.10 83 1012.2
20260508111525 7 231 8.0 11.3 0.00 0.25 0.10 83 1012.0
20260508110023 7 234 8.0 12.9 0.00 0.25 0.10 83 1011.8
20260508104524 6 229 8.0 11.3 0.00 0.25 0.10 84 1011.7
20260508103033 6 223 8.0 11.3 0.00 0.25 0.10 84 1011.6
20260508101528 6 223 9.7 11.3 0.00 0.25 0.10 84 1011.6
20260508100025 6 222 6.4 9.7 0.00 0.25 0.10 85 1011.6
20260508094527 6 205 6.4 8.0 0.00 0.25 0.10 87 1011.7
20260508093036 6 197 4.8 6.4 0.00 0.25 0.10 87 1011.7
20260508091533 6 197 4.8 6.4 0.00 0.25 0.10 87 1011.8
20260508090024 7 197 6.4 9.7 0.00 0.25 0.10 87 1011.9
20260508084520 7 191 6.4 8.0 0.00 0.25 0.10 86 1011.8
20260508083017 7 202 4.8 9.7 0.00 0.25 0.10 86 1011.9
20260508081515 7 198 6.4 11.3 0.00 0.25 0.10 86 1011.9
20260508080025 7 190 9.7 12.9 0.00 0.25 0.10 87 1011.9
20260508074526 7 193 6.4 11.3 0.00 0.25 0.10 87 1011.9
20260508073026 7 198 9.7 12.9 0.00 0.25 0.10 87 1012.1
20260508071524 7 196 6.4 8.0 0.00 0.25 0.10 85 1012.1
20260508070023 7 206 9.7 9.7 0.00 0.25 0.10 85 1012.3
20260508064525 7 225 6.4 9.7 0.05 0.25 0.10 85 1012.4
20260508063016 7 229 4.8 6.4 0.05 0.25 0.10 87 1012.5
20260508061512 7 207 3.2 8.0 0.05 0.25 0.10 87 1012.4
20260508060008 7 196 9.7 14.5 0.05 0.25 0.10 87 1012.5
20260508054508 7 204 9.7 14.5 0.00 0.20 0.05 87 1012.8
20260508053004 7 208 9.7 12.9 0.00 0.20 0.05 87 1012.8
20260508051521 7 205 8.0 11.3 0.00 0.20 0.05 86 1012.9
20260508050025 7 207 6.4 12.9 0.05 0.20 0.05 84 1013.0
20260508044515 8 200 8.0 12.9 0.10 0.20 0.05 82 1013.0
20260508043012 8 156 8.0 14.5 0.18 0.20 0.05 81 1012.8
20260508041523 8 205 8.0 16.1 0.20 0.20 0.05 80 1013.4
20260508040030 8 294 4.8 22.5 0.15 0.15 0.00 78 1013.7
20260508034522 8 298 1.6 4.8 0.10 0.10 0.10 81 1013.6
20260508033015 8 244 4.8 11.3 0.03 0.03 0.03 77 1013.5
20260508031511 8 175 4.8 8.0 0.00 0.00 0.00 75 1012.9
20260508030007 8 175 8.0 11.3 0.00 0.00 0.00 72 1013.1
20260508024524 8 183 8.0 9.7 0.00 0.00 0.00 72 1013.1
20260508023023 8 182 3.2 6.4 0.00 0.00 0.00 76 1013.1
20260508021518 8 182 6.4 8.0 0.00 0.00 0.00 73 1013.1
20260508020027 8 180 8.0 11.3 0.00 0.00 0.00 75 1013.0
20260508014518 9 176 9.7 11.3 0.00 0.00 0.00 77 1013.1
20260508013014 9 229 4.8 6.4 0.00 0.00 0.00 71 1013.1
20260508011510 10 246 6.4 8.0 0.00 0.00 0.00 66 1013.0
20260508010027 10 254 6.4 11.3 0.00 0.00 0.00 65 1013.0
20260508004524 10 260 8.0 17.7 0.00 0.00 0.00 62 1013.1
20260508003021 10 250 8.0 12.9 0.00 0.00 0.00 60 1013.2
20260508001537 10 269 9.7 19.3 0.00 0.00 0.00 61 1013.2
20260508000016 10 246 16.1 24.1 0.00 0.00 0.00 57 1013.1
20260507234516 11 253 17.7 27.4 0.00 0.00 0.00 53 1013.2
20260507233027 11 229 19.3 33.8 0.00 0.00 0.00 48 1013.0
20260507231533 12 236 25.7 35.4 0.00 0.00 0.00 47 1012.9
20260507230026 12 250 27.4 35.4 0.00 0.00 0.00 43 1012.8
20260507224532 13 263 24.1 32.2 0.00 0.00 0.00 39 1012.4
20260507223021 13 266 16.1 22.5 0.00 0.00 0.00 41 1012.4
20260507221518 13 266 16.1 27.4 0.00 0.00 0.00 40 1012.3
20260507220039 13 242 11.3 25.7 0.00 0.00 0.00 37 1012.3
20260507214535 13 264 19.3 30.6 0.00 0.00 0.00 41 1012.3
20260507213009 14 308 17.7 32.2 0.00 0.00 0.00 38 1012.2
20260507211503 14 251 24.1 37.0 0.00 0.00 0.00 37 1012.2
20260507210022 13 289 12.9 27.4 0.00 0.00 0.00 40 1012.3
20260507204521 13 257 17.7 29.0 0.00 0.00 0.00 43 1012.5
20260507203016 13 279 16.1 25.7 0.00 0.00 0.00 42 1012.6
20260507201514 13 300 22.5 38.6 0.00 0.00 0.00 37 1012.7
20260507200016 13 286 20.9 38.6 0.00 0.00 0.00 40 1012.9